Hourly Weather Roundup
Issued by NWS Central Illinois

Home | Current Version | Previous Version | Text Only | Print | Product List | Glossary On
Versions: 1 2 3 4 5 6 7 8 9 10 11 12 13 14 15 16 17 18 19 20 21 22 23 24 25 26 27 28 29 30 31 32 33 34 35 36 37 38 39 40 41 42 43 44 45 46 47 48 49 50
000
NZUS43 KILX 240610
HWRILX

AREA WEATHER ROUNDUP
NATIONAL WEATHER SERVICE, LINCOLN IL
100 AM CDT THU JUL 24 2014


CITY           SKY/WX    TMP DP  RH WIND       PRES   REMARKS
BLOOMINGTON    CLEAR     58  52  80 N7        30.15F
CHAMPAIGN      CLEAR     59  51  75 N9        30.11F
6HR MIN TEMP:  58; 6HR MAX TEMP:  71;

DECATUR        NOT AVBL
FLORA          NOT AVBL
GALESBURG      NOT AVBL
JACKSONVILLE   NOT AVBL
LACON          NOT AVBL
LAWRENCEVILLE  CLEAR     59  53  80 N6        30.06F
6HR MIN TEMP:  59; 6HR MAX TEMP:  75;

LITCHFIELD     NOT AVBL
$$


CITY           SKY/WX    TMP DP  RH WIND       PRES   REMARKS
LINCOLN        NOT AVBL
MACOMB         CLEAR     57  57 100 CALM      30.17S
MATTOON        CLEAR     57  51  80 N8        30.09F
6HR MIN TEMP:  55; 6HR MAX TEMP:  72;

MT CARMEL AP   CLEAR     61  54  77 N3        30.06S
OLNEY-NOBLE AP NOT AVBL
PARIS          CLEAR     56  53  88 N5        30.09F
6HR MIN TEMP:  56; 6HR MAX TEMP:  72;

PEORIA         CLEAR     64  54  69 NE3       30.16S
6HR MIN TEMP:  64; 6HR MAX TEMP:  78;

PONTIAC        NOT AVBL
RANTOUL        NOT AVBL
ROBINSON       CLEAR     58  53  83 N3        30.08F
6HR MIN TEMP:  58; 6HR MAX TEMP:  77;

SPRINGFIELD    CLEAR     61  54  77 NE3       30.14F
6HR MIN TEMP:  61; 6HR MAX TEMP:  78;

TAYLORVILLE    NOT AVBL
$$

...REGIONAL REPORTS...


CITY           SKY/WX    TMP DP  RH WIND       PRES   REMARKS
CHICAGO O`HARE CLEAR     59  49  69 N6        30.14F
KANKAKEE       NOT AVBL
MOLINE         PTCLDY    62  58  86 E9        30.15S
MOUNT VERNON   CLEAR     61  48  63 CALM      30.10S
PITTSFIELD     NOT AVBL
QUINCY         CLEAR     62  57  83 N6        30.14S
ROCKFORD       CLEAR     60  48  64 CALM      30.19S
$$


CITY           SKY/WX    TMP DP  RH WIND       PRES   REMARKS
BURLINGTON     CLEAR     61  59  93 CALM      30.14F FOG
CEDAR RAPIDS   CLEAR     60  56  86 CALM      30.15R
DES MOINES     CLEAR     70  59  68 CALM      30.16S
KIRKSVILLE     CLEAR     60  56  86 CALM      30.16S
OTTUMWA        CLEAR     60  57  89 CALM      30.15S
ST LOUIS       CLEAR     69  58  67 NE7       30.12S
$$


CITY           SKY/WX    TMP DP  RH WIND       PRES   REMARKS
TERRE HAUTE    MOCLDY    59  50  72 N7        30.07S
EVANSVILLE     CLOUDY    68  56  65 N12       30.04S
INDIANAPOLIS   MOCLDY    62  55  77 N12       30.04F
LAFAYETTE      CLEAR     56  51  84 CALM      30.08F
MADISON        CLEAR     58  50  75 SE3       30.18S
MILWAUKEE      CLEAR     57  50  77 N7        30.16F
$$




USA.gov is the U.S. government's official web portal to all federal, state and local government web resources and services.